TimeCST,TemperatureF,Dew PointF,Humidity,Sea Level PressureIn,VisibilityMPH,Wind Direction,Wind SpeedMPH,Gust SpeedMPH,PrecipitationIn,Events,Conditions,WindDirDegrees,DateUTC
12:16 AM,66.2,53.6,64,29.84,10.0,South,12.7,21.9,N/A,,Clear,170,2012-11-11 06:16:00
12:35 AM,66.2,53.6,64,29.84,10.0,South,11.5,21.9,N/A,,Clear,180,2012-11-11 06:35:00
12:55 AM,66.2,53.6,64,29.85,10.0,South,15.0,23.0,N/A,,Partly Cloudy,180,2012-11-11 06:55:00
1:15 AM,66.2,53.6,64,29.84,10.0,South,15.0,24.2,N/A,,Mostly Cloudy,180,2012-11-11 07:15:00
1:55 AM,66.2,55.4,68,29.83,10.0,South,11.5,23.0,N/A,,Mostly Cloudy,180,2012-11-11 07:55:00
2:15 AM,66.2,55.4,68,29.82,10.0,South,15.0,21.9,N/A,,Mostly Cloudy,170,2012-11-11 08:15:00
2:55 AM,66.2,55.4,68,29.81,10.0,South,15.0,21.9,N/A,,Overcast,180,2012-11-11 08:55:00
3:15 AM,66.2,55.4,68,29.81,10.0,South,13.8,20.7,N/A,,Scattered Clouds,190,2012-11-11 09:15:00
4:15 AM,66.2,55.4,68,29.84,10.0,SSW,10.4,21.9,N/A,,Overcast,200,2012-11-11 10:15:00
4:55 AM,66.2,55.4,68,29.83,10.0,South,13.8,20.7,N/A,,Overcast,190,2012-11-11 10:55:00
5:35 AM,66.2,55.4,68,29.82,10.0,South,13.8,25.3,N/A,,Overcast,180,2012-11-11 11:35:00
5:56 AM,66.2,55.4,68,29.82,10.0,South,15.0,23.0,N/A,,Overcast,180,2012-11-11 11:56:00
6:15 AM,66.2,55.4,68,29.81,10.0,South,11.5,21.9,N/A,,Overcast,180,2012-11-11 12:15:00
6:35 AM,66.2,55.4,68,29.83,10.0,South,12.7,23.0,N/A,,Overcast,180,2012-11-11 12:35:00
7:35 AM,66.2,55.4,68,29.81,10.0,South,13.8,26.5,N/A,,Overcast,170,2012-11-11 13:35:00
7:55 AM,66.2,55.4,68,29.82,10.0,South,15.0,24.2,N/A,,Mostly Cloudy,170,2012-11-11 13:55:00
8:15 AM,66.2,55.4,68,29.82,10.0,South,19.6,29.9,N/A,,Overcast,170,2012-11-11 14:15:00
8:35 AM,64.4,55.4,73,29.81,10.0,South,18.4,24.2,N/A,,Overcast,170,2012-11-11 14:35:00
9:15 AM,66.2,57.2,73,29.81,10.0,South,18.4,31.1,N/A,,Overcast,180,2012-11-11 15:15:00
9:35 AM,66.2,55.4,68,29.80,10.0,South,20.7,31.1,N/A,,Mostly Cloudy,180,2012-11-11 15:35:00
9:55 AM,66.2,57.2,73,29.80,10.0,South,16.1,27.6,N/A,,Mostly Cloudy,190,2012-11-11 15:55:00
10:15 AM,53.6,46.4,77,29.86,5.0,NW,15.0,27.6,0.15,,Mostly Cloudy,310,2012-11-11 16:15:00
10:35 AM,51.8,46.4,82,29.88,8.0,NNW,9.2,19.6,0.22,,Overcast,330,2012-11-11 16:35:00
11:15 AM,51.8,46.4,82,29.90,6.0,NW,9.2,18.4,N/A,Thunderstorm,Overcast,320,2012-11-11 17:15:00
11:35 AM,51.8,46.4,82,29.90,9.0,NNW,9.2,-,N/A,,Mostly Cloudy,330,2012-11-11 17:35:00
11:56 AM,51.8,46.4,82,29.91,7.0,NW,9.2,-,N/A,,Mostly Cloudy,320,2012-11-11 17:56:00
12:15 PM,50.0,46.4,87,29.91,8.0,NW,5.8,-,N/A,,Overcast,310,2012-11-11 18:15:00
12:35 PM,50.0,46.4,87,29.91,8.0,Calm,Calm,-,N/A,,Mostly Cloudy,0,2012-11-11 18:35:00
12:56 PM,50.0,46.4,87,29.90,7.0,NW,5.8,-,N/A,,Mostly Cloudy,310,2012-11-11 18:56:00
1:15 PM,50.0,46.4,87,29.91,7.0,Calm,Calm,-,N/A,,Mostly Cloudy,0,2012-11-11 19:15:00
1:35 PM,50.0,46.4,87,29.92,10.0,NW,5.8,-,N/A,,Overcast,310,2012-11-11 19:35:00
2:15 PM,50.0,44.6,82,29.91,9.0,Calm,Calm,-,N/A,,Overcast,0,2012-11-11 20:15:00
2:35 PM,50.0,44.6,82,29.90,9.0,Calm,Calm,-,N/A,,Overcast,0,2012-11-11 20:35:00
2:55 PM,50.0,44.6,82,29.91,4.0,SE,3.5,-,N/A,,Mostly Cloudy,140,2012-11-11 20:55:00
3:15 PM,50.0,46.4,87,29.92,10.0,Calm,Calm,-,N/A,,Overcast,0,2012-11-11 21:15:00
3:36 PM,50.0,46.4,87,29.93,8.0,SSW,4.6,-,N/A,,Overcast,210,2012-11-11 21:36:00
3:55 PM,50.0,46.4,87,29.94,10.0,West,5.8,-,0.05,,Overcast,280,2012-11-11 21:55:00
4:15 PM,44.6,39.2,81,29.94,10.0,NW,13.8,-,0.01,,Overcast,310,2012-11-11 22:15:00
4:35 PM,42.8,39.2,87,29.97,6.0,NW,13.8,-,0.01,,Overcast,310,2012-11-11 22:35:00
5:35 PM,41.0,37.4,87,30.02,10.0,WNW,12.7,-,N/A,,Overcast,300,2012-11-11 23:35:00
6:16 PM,39.2,35.6,87,30.05,3.0,NW,11.5,-,N/A,,Overcast,320,2012-11-12 00:16:00
6:35 PM,39.2,35.6,87,30.06,5.0,NW,6.9,19.6,N/A,,Overcast,320,2012-11-12 00:35:00
6:55 PM,37.4,35.6,93,30.08,6.0,NNW,9.2,-,N/A,,Overcast,330,2012-11-12 00:55:00
7:16 PM,37.4,33.8,87,30.09,9.0,NW,11.5,-,N/A,,Overcast,310,2012-11-12 01:16:00
7:35 PM,37.4,33.8,87,30.10,5.0,NW,12.7,-,N/A,,Overcast,310,2012-11-12 01:35:00
7:55 PM,37.4,33.8,87,30.11,10.0,NW,10.4,-,N/A,,Overcast,320,2012-11-12 01:55:00
8:16 PM,37.4,33.8,87,30.13,10.0,NW,13.8,17.3,N/A,,Overcast,310,2012-11-12 02:16:00
8:35 PM,35.6,32.0,87,30.14,10.0,NW,10.4,-,N/A,,Overcast,320,2012-11-12 02:35:00
8:55 PM,35.6,30.2,81,30.16,10.0,NNW,10.4,-,N/A,,Overcast,330,2012-11-12 02:55:00
9:16 PM,35.6,30.2,81,30.15,10.0,NW,10.4,-,N/A,,Overcast,320,2012-11-12 03:16:00
9:35 PM,35.6,30.2,81,30.17,10.0,NNW,8.1,-,N/A,,Overcast,330,2012-11-12 03:35:00
9:55 PM,35.6,30.2,81,30.17,10.0,NNW,9.2,16.1,N/A,,Overcast,340,2012-11-12 03:55:00
10:35 PM,33.8,26.6,75,30.19,10.0,NNW,11.5,17.3,N/A,,Mostly Cloudy,340,2012-11-12 04:35:00
10:55 PM,33.8,26.6,75,30.18,10.0,North,11.5,16.1,N/A,,Partly Cloudy,350,2012-11-12 04:55:00
11:15 PM,33.8,26.6,75,30.21,10.0,NNW,5.8,-,N/A,,Clear,340,2012-11-12 05:15:00
11:35 PM,33.8,26.6,75,30.20,10.0,NNW,6.9,-,N/A,,Clear,340,2012-11-12 05:35:00
11:55 PM,33.8,24.8,70,30.22,10.0,NNW,8.1,-,N/A,,Clear,340,2012-11-12 05:55:00